Weather in Besskorbnaya

Russia / Krasnodar Krai     44°38′38″N   41°18′30″E
temp.,
°C
wind,
m/s
gust,
m/s
humid.,
%
clouds,
%
prec.,
mm/h
press.,
hPa
HPBL,
m
18 april, sun
sun1800:00+7e379398 0.0 1021144
03:00+8e4991100 0.3 1019289
06:00+8ese5994100 0.2 1018270
09:00+10ese4890100 0.9 1016249
12:00+17e226992 0.1 1015665
15:00+17n4372100 0.9 1016804
18:00+14ene368438 0.1 1016173
21:00+11e2291100 0.7 101615
19 april, mon
mon1900:00+11s2291100 0.0 101618
03:00+11wsw3395100 0.2 101544
06:00+11wnw2297100 0.3 101639
09:00+14se3589100 2.3 1016220
12:00+18sse3572100 0.0 1014628
15:00+19nw4573100 0.7 1013638
18:00+15nnw3491100 0.6 1014294
21:00+13ene2297100 1.3 101431
20 april, tue
tue2000:00+12ene2596100 0.8 1012107
03:00+13ese61395100 0.8 1009344
06:00+13ese61391100 0.0 1006257
09:00+17ese5977100 0.0 1005232
12:00+22n2161100 0.0 1004748
15:00+15nw5891100 0.8 1007608
18:00+13wsw2395100 1.6 1009115
21:00+12w31081100 1.8 1012516
21 april, wed
wed2100:00+10w41378100 0.1 1013708
03:00+9nnw2493100 4.7 1016256
06:00+8n269395 0.8 1018469
09:00+8nnw2491100 0.9 1019435
12:00+11n1283100 0.9 1019552
15:00+12se3380100 1.1 1020498
18:00+11sse358679 0.0 1020321
21:00+8se349396 0.0 102261
22 april, thu
thu2200:00+8se369298 0.0 1021124
03:00+9e2289100 0.0 102222
06:00+8w119490 0.0 102318
09:00+11w2185100 0.0 1023422
12:00+14e21706 0.4 1023763
15:00+14ese337192 3.3 1022747
18:00+13ese3579100 0.7 1022256
21:00+10ese3387100 0.8 102348